Location: Gebenbach
(49.5378°N, 11.8735°E)
Time: 10:51:28
(UTC+00:00)

Lacrosse 5 - Pass Details

Date: 29 October 2020
Orbit: 716 x 723 km, 57.0° (Epoch: 06 November)

Event Time Altitude Azimuth Distance (km) Brightness Sun altitude
Rises 16:28:52 0° 279° (W) 3,121 6.6 -6.1°
Reaches altitude 10° 16:31:25 10° 288° (WNW) 2,201 5.4 -6.5°
Maximum altitude 16:36:05 36° 355° (N) 1,137 2.9 -7.2°
Drops below altitude 10° 16:40:45 10° 62° (ENE) 2,204 3.8 -8.0°
Enters shadow 16:41:00 - 63° (ENE) 2,286 3.8 -8.0°
